756  
ASUS42 KKEY 151210  
RWRKEY  
 
FLORIDA KEYS REGIONAL WEATHER ROUNDUP  
NATIONAL WEATHER SERVICE KEY WEST FLORIDA  
800 AM EDT MON AUG 15 2022  
   
..FLORIDA KEYS
 
 
 
CITY SKY/WX TMP DP RH WIND PRES REMARKS
 
KEY WEST SUNNY 84 77 79 CALM 29.94S HX 94  
BOCA CHICA NAS MOSUNNY 87 77 72 CALM 29.94R HX 99  
MARATHON MOSUNNY 83 74 74 CALM 29.94S  
   
..SOUTH FLORIDA
 
 
 
CITY SKY/WX TMP DP RH WIND PRES REMARKS
 
HOMESTEAD MOSUNNY 76 76 99 CALM 29.93R  
WEST KENDALL MOSUNNY 72 32 23 CALM 29.95S  
MIAMI MOSUNNY 81 74 79 SW3 29.95S  
OPA LOCKA SUNNY N/A N/A N/A CALM 29.95S  
PEMBROKE PINES NOT AVBL  
FT LAUDERDALE MOSUNNY 79 76 90 W3 29.94R  
FT LAUD EXEC SUNNY 79 77 94 CALM 29.94S  
POMPANO BEACH SUNNY 78 75 90 W5 29.94S  
BOCA RATON SUNNY 77 75 94 VRB5 29.95R  
WEST PALM BCH MOSUNNY 76 74 93 SW6 29.95R  
   
..SOUTHWEST FLORIDA
 
 
 
CITY SKY/WX TMP DP RH WIND PRES REMARKS
 
MARCO ISLAND SUNNY 78 75 90 SE3 29.96R  
NAPLES MOSUNNY 78 76 93 SE5 29.94R  
FT MYERS-SW AP MOSUNNY 77 76 96 S6 29.94R  
FORT MYERS MOSUNNY 78 76 93 SE3 29.93R  
   
..ADJACENT COASTAL WATERS
 
 
 
STATION/POSITION TIME SKY/WX TEMP WIND PRES WAVE
 
AIR SEA DIR/SP/G HT/PER  
(UTC) (F) (DEG/KT/KT) (MB) (FT/S)  
PULASKI SHOAL LT NOT AVBL  
SAND KEY NOT AVBL  
SOMBRERO KEY 1150 120/ 1/ 2 1013.0S  
LONG KEY 1150 160/ 3/ 4 1013.5R  
FOWEY ROCKS 1200 85 85 250/ 5/ 5 1014.3R  
SATAN SHL BUOY 1130 83 86 N/A 1  
   
..INTERNATIONAL WEATHER
 
 
 
CITY SKY/WX TMP DP RH WIND PRES REMARKS
 
NASSAU MOSUNNY 79 77 94 VRB1 29.96F  
HAVANA MOSUNNY 72 72 100 VRB1 29.94S  
VARADERO MOSUNNY 70 68 94 S6 29.94S  
CANCUN PTCLDY 75 73 94 CALM 29.92R  
COZUMEL PTCLDY 79 75 89 CALM 29.91  
KINGSTON MOSUNNY 82 72 69 N6 29.92S  
BELIZE CITY PTCLDY 81 77 89 VRB2 29.87R  
 

 
 
 
CLICK HERE TO GO TO PREVIOUS BULLETINS.

The Nexlab FL Page Main Text Page